Snowfall_Accumulation
0.0 0.0 0.0 0.0 0.0 0.0 0.0 0.0 0.0 0.0 0.0 0.0 0.0 0.0 0.0 0.0 0.0 0.0 0.0 0.0 0.0 0.0 0.0 0.0 0.0 0.0 0.0 0.0 0.0 0.0 0.0 0.0 0.0 0.0 0.0 0.0 0.0 0.0 0.0 0.0 0.0 0.0 0.0
0.0 0.0 0.0 0.0 0.0 0.0 0.0 0.0 0.0 0.0 0.0 0.0 0.0 0.0 0.0 0.0 0.0 0.0 0.0 0.0 0.0 0.0 0.0 0.0 0.0 0.0 0.0 0.0 0.0 0.0 0.0 0.0 0.0 0.0 0.0 0.0 0.0 0.0 0.0 0.0 0.0 0.0 0.0
0.0 0.0 0.0 0.0 0.0 0.0 0.0 0.0 0.0 0.0 0.0 0.0 0.0 0.0 0.0 0.0 0.0 0.0 0.0 0.0 0.0 0.0 0.0 0.0 0.0 0.0 0.0 0.0 0.0 0.0 0.0 0.0 0.0 0.0 0.0 0.0 0.0 0.0 0.0 0.0 0.0 0.0 0.0
0.0 0.0 0.0 0.0 0.0 0.0 0.0 0.0 0.0 0.0 0.0 0.0 0.0 0.0 0.0 0.0 0.0 0.0 0.0 0.0 0.0 0.0 0.0 0.0 0.0 0.0 0.0 0.0 0.0 0.0 0.0 0.0 0.0 0.0 0.0 0.0 0.0 0.0 0.0 0.0 0.0 0.0 0.0
0.0 0.0 0.0 0.0 0.0 0.0 0.0 0.0 0.0 0.0 0.0 0.0 0.0 0.0 0.0 0.0 0.0 0.0 0.0 0.0 0.0 0.0 0.0 0.0 0.0 0.0 0.0 0.0 0.0 0.0 0.0 0.0 0.0 0.0 0.0 0.0 0.0 0.0 0.0 0.0 0.0 0.0 0.0
0.1 0.0 0.0 0.0 0.0 0.0 0.0 0.0 0.0 0.0 0.0 0.0 0.0 0.0 0.0 0.0 0.0 0.0 0.0 0.0 0.0 0.0 0.0 0.0 0.0 0.0 0.0 0.0 0.0 0.0 0.0 0.0 0.0 0.0 0.0 0.0 0.0 0.0 0.0 0.0 0.0 0.0 0.0
0.1 0.1 0.0 0.0 0.0 0.0 0.0 0.0 0.0 0.0 0.0 0.0 0.0 0.0 0.0 0.0 0.0 0.0 0.0 0.0 0.0 0.0 0.0 0.0 0.0 0.0 0.0 0.0 0.0 0.0 0.0 0.0 0.0 0.0 0.0 0.0 0.0 0.0 0.0 0.0 0.0 0.0 0.0
0.3 0.3 0.3 0.2 0.0 0.0 0.0 0.0 0.0 0.0 0.0 0.0 0.0 0.0 0.0 0.0 0.0 0.0 0.0 0.0 0.0 0.0 0.0 0.0 0.0 0.0 0.0 0.0 0.0 0.0 0.0 0.0 0.0 0.0 0.0 0.0 0.0 0.0 0.0 0.0 0.0 0.0 0.0
0.7 0.9 0.4 0.4 0.3 0.1 0.0 0.0 0.0 0.0 0.0 0.0 0.0 0.0 0.0 0.0 0.0 0.0 0.0 0.0 0.0 0.0 0.0 0.0 0.0 0.0 0.0 0.0 0.0 0.0 0.0 0.0 0.0 0.0 0.0 0.0 0.0 0.0 0.0 0.0 0.0 0.0 0.0
1.4 1.6 1.2 1.1 0.6 0.4 0.3 0.1 0.0 0.0 0.0 0.0 0.0 0.0 0.0 0.0 0.0 0.0 0.0 0.0 0.0 0.0 0.0 0.0 0.0 0.0 0.0 0.0 0.0 0.0 0.0 0.0 0.0 0.0 0.0 0.0 0.0 0.0 0.0 0.0 0.0 0.0 0.0
2.2 2.4 2.5 1.6 1.8 0.8 0.6 0.5 0.3 0.1 0.0 0.0 0.0 0.0 0.0 0.0 0.0 0.0 0.0 0.0 0.0 0.0 0.0 0.0 0.0 0.0 0.0 0.0 0.0 0.0 0.0 0.0 0.0 0.0 0.0 0.0 0.0 0.0 0.0 0.0 0.0 0.0 0.0
3.3 2.9 2.7 3.3 2.3 2.4 1.2 1.0 0.8 0.5 0.2 0.1 0.0 0.0 0.0 0.0 0.0 0.0 0.0 0.0 0.0 0.0 0.0 0.0 0.0 0.0 0.0 0.0 0.0 0.0 0.0 0.0 0.0 0.0 0.0 0.0 0.0 0.0 0.0 0.0 0.0 0.0 0.0
2.2 2.5 1.7 2.6 3.7 3.4 3.4 1.7 1.3 1.3 0.6 0.5 0.2 0.1 0.0 0.0 0.0 0.0 0.0 0.0 0.0 0.0 0.0 0.0 0.0 0.0 0.0 0.0 0.0 0.0 0.0 0.0 0.0 0.0 0.0 0.0 0.0 0.0 0.0 0.0 0.0 0.0 0.0
3.4 2.9 2.4 3.0 3.7 4.4 5.1 4.2 2.6 1.4 1.6 1.1 0.6 0.4 0.1 0.0 0.0 0.0 0.0 0.0 0.0 0.0 0.0 0.0 0.0 0.0 0.0 0.0 0.0 0.0 0.0 0.0 0.0 0.0 0.0 0.0 0.0 0.0 0.0 0.0 0.0 0.0 0.0
2.7 3.2 4.1 4.0 4.0 4.4 4.2 4.9 4.2 3.7 2.0 2.2 1.3 0.9 0.4 0.1 0.1 0.0 0.0 0.0 0.0 0.0 0.0 0.0 0.0 0.0 0.0 0.0 0.0 0.0 0.0 0.1 0.0 0.0 0.0 0.0 nan nan nan 0.2 0.2 0.0 0.0
3.1 3.3 3.2 3.1 3.4 5.3 6.0 5.7 6.3 5.1 5.0 2.7 3.0 1.8 1.1 0.5 0.2 0.1 0.0 0.0 0.0 0.0 0.0 0.0 0.0 0.0 0.0 nan nan 0.0 0.3 0.3 0.3 0.3 0.1 0.0 0.0 0.0 nan nan nan nan 0.3
4.6 4.1 4.7 5.0 5.1 5.8 7.0 7.0 7.3 7.0 6.0 6.6 3.5 3.6 2.3 1.6 0.9 0.2 0.2 0.1 0.1 0.1 0.1 0.0 0.0 0.0 0.0 nan nan nan 0.3 0.5 0.2 0.2 0.1 0.0 0.0 nan 0.0 nan nan nan nan
5.9 4.9 4.2 4.0 4.4 4.7 4.4 5.1 5.2 6.8 7.3 7.2 6.6 4.5 4.8 3.0 1.8 1.3 0.5 0.3 0.2 0.2 0.1 0.1 0.0 0.0 0.0 nan nan nan 0.1 0.4 0.1 0.0 0.0 0.0 0.0 0.0 0.0 0.0 0.0 0.0 0.0
6.7 8.2 8.2 7.0 4.9 5.9 5.0 5.1 4.8 5.2 5.6 6.4 7.5 7.4 6.4 6.6 4.2 3.4 2.6 0.9 0.9 0.3 0.1 0.1 0.1 0.1 0.0 nan nan 0.0 0.1 0.2 0.0 0.0 0.0 0.0 0.0 nan nan 0.0 0.2 0.1 0.0
6.9 6.5 5.4 6.5 3.4 4.3 4.9 5.2 5.4 5.0 5.4 6.4 7.8 8.1 8.6 9.1 9.4 5.5 5.2 3.2 1.5 1.3 0.4 0.2 0.0 nan 0.0 nan nan nan 0.4 1.5 0.5 0.1 0.0 nan 0.0 nan nan 0.1 0.6 1.0 0.2
4.7 4.6 3.8 5.6 6.7 5.1 5.2 5.6 5.8 6.9 7.4 6.7 6.2 6.1 6.7 8.6 10.6 10.6 6.7 6.6 4.3 1.6 1.5 0.8 0.4 0.1 0.0 0.0 nan nan 0.1 0.6 0.5 0.5 0.3 0.1 nan nan nan nan 0.0 0.2 0.0
1.7 1.4 2.3 2.7 2.7 2.5 3.2 4.5 4.2 6.0 5.5 6.2 6.2 6.2 6.6 7.0 6.8 9.5 9.9 7.7 8.3 6.4 3.6 3.6 2.1 1.2 0.2 nan nan nan nan nan 0.7 0.5 0.1 0.1 nan nan nan nan nan nan nan
1.0 1.1 2.2 2.2 1.3 1.6 2.6 2.4 3.8 3.9 3.9 3.5 5.0 6.1 6.2 6.2 7.0 7.5 8.6 9.8 8.9 10.1 9.8 7.4 6.0 4.3 1.3 0.4 nan nan nan nan 0.2 0.3 0.2 nan nan nan nan nan nan nan 0.1
0.1 0.1 0.3 0.7 1.0 1.0 1.1 1.9 2.5 2.6 3.1 3.3 3.7 4.1 5.1 5.8 5.8 5.7 6.2 6.9 7.8 10.4 11.0 10.0 10.0 7.2 4.4 1.5 0.5 0.6 1.0 nan 0.4 nan 0.5 nan 0.2 nan nan 0.0 0.0 0.0 0.0
0.0 0.0 0.1 0.1 0.4 0.4 0.6 0.8 0.7 0.9 2.0 2.6 3.2 3.6 3.9 5.7 5.8 5.8 12.3 11.6 9.3 14.7 17.9 15.6 13.7 13.3 11.7 7.5 3.2 3.3 2.5 1.7 1.7 nan 0.9 0.2 0.3 0.3 0.2 0.2 0.0 0.0 0.1
0.1 0.1 0.1 0.1 0.2 0.4 0.7 0.6 0.7 1.1 1.7 2.1 3.3 3.9 4.2 4.7 4.9 5.1 4.5 nan nan nan nan nan 11.5 11.3 nan nan nan nan nan nan nan 3.3 1.1 0.7 0.3 0.4 0.3 0.4 0.4 0.4 0.4
Water_Equivalent
0.00 0.00 0.00 0.00 0.00 0.00 0.00 0.00 0.00 0.00 0.00 0.00 0.00 0.00 0.00 0.00 0.00 0.00 0.00 0.00 0.00 0.00 0.00 0.00 0.00 0.00 0.00 0.00 0.00 0.00 0.00 0.00 0.00 0.00 0.00 0.00 0.00 0.00 0.00 0.00 0.00 0.00 0.00
0.00 0.00 0.00 0.00 0.00 0.00 0.00 0.00 0.00 0.00 0.00 0.00 0.00 0.00 0.00 0.00 0.00 0.00 0.00 0.00 0.00 0.00 0.00 0.00 0.00 0.00 0.00 0.00 0.00 0.00 0.00 0.00 0.00 0.00 0.00 0.00 0.00 0.00 0.00 0.00 0.00 0.00 0.00
0.00 0.00 0.00 0.00 0.00 0.00 0.00 0.00 0.00 0.00 0.00 0.00 0.00 0.00 0.00 0.00 0.00 0.00 0.00 0.00 0.00 0.00 0.00 0.00 0.00 0.00 0.00 0.00 0.00 0.00 0.00 0.00 0.00 0.00 0.00 0.00 0.00 0.00 0.00 0.00 0.00 0.00 0.00
0.00 0.00 0.00 0.00 0.00 0.00 0.00 0.00 0.00 0.00 0.00 0.00 0.00 0.00 0.00 0.00 0.00 0.00 0.00 0.00 0.00 0.00 0.00 0.00 0.00 0.00 0.00 0.00 0.00 0.00 0.00 0.00 0.00 0.00 0.00 0.00 0.00 0.00 0.00 0.00 0.00 0.00 0.00
0.00 0.00 0.00 0.00 0.00 0.00 0.00 0.00 0.00 0.00 0.00 0.00 0.00 0.00 0.00 0.00 0.00 0.00 0.00 0.00 0.00 0.00 0.00 0.00 0.00 0.00 0.00 0.00 0.00 0.00 0.00 0.00 0.00 0.00 0.00 0.00 0.00 0.00 0.00 0.00 0.00 0.00 0.00
0.01 0.00 0.00 0.00 0.00 0.00 0.00 0.00 0.00 0.00 0.00 0.00 0.00 0.00 0.00 0.00 0.00 0.00 0.00 0.00 0.00 0.00 0.00 0.00 0.00 0.00 0.00 0.00 0.00 0.00 0.00 0.00 0.00 0.00 0.00 0.00 0.00 0.00 0.00 0.00 0.00 0.00 0.00
0.02 0.01 0.00 0.00 0.00 0.00 0.00 0.00 0.00 0.00 0.00 0.00 0.00 0.00 0.00 0.00 0.00 0.00 0.00 0.00 0.00 0.00 0.00 0.00 0.00 0.00 0.00 0.00 0.00 0.00 0.00 0.00 0.00 0.00 0.00 0.00 0.00 0.00 0.00 0.00 0.00 0.00 0.00
0.05 0.05 0.04 0.03 0.01 0.00 0.00 0.00 0.00 0.00 0.00 0.00 0.00 0.00 0.00 0.00 0.00 0.00 0.00 0.00 0.00 0.00 0.00 0.00 0.00 0.00 0.00 0.00 0.00 0.00 0.00 0.00 0.00 0.00 0.00 0.00 0.00 0.00 0.00 0.00 0.00 0.00 0.00
0.10 0.11 0.06 0.05 0.04 0.02 0.00 0.00 0.00 0.00 0.00 0.00 0.00 0.00 0.00 0.00 0.00 0.00 0.00 0.00 0.00 0.00 0.00 0.00 0.00 0.00 0.00 0.00 0.00 0.00 0.00 0.00 0.00 0.00 0.00 0.00 0.00 0.00 0.00 0.00 0.00 0.00 0.01
0.16 0.18 0.14 0.13 0.08 0.05 0.04 0.02 0.01 0.00 0.00 0.00 0.00 0.00 0.00 0.00 0.00 0.00 0.00 0.00 0.00 0.00 0.00 0.00 0.00 0.00 0.00 0.00 0.00 0.00 0.00 0.00 0.00 0.00 0.00 0.00 0.00 0.00 0.00 0.00 0.00 0.00 0.00
0.23 0.26 0.29 0.19 0.22 0.10 0.08 0.06 0.04 0.02 0.01 0.00 0.00 0.00 0.00 0.00 0.00 0.00 0.00 0.00 0.00 0.00 0.00 0.00 0.00 0.00 0.00 0.00 0.00 0.00 0.00 0.00 0.00 0.00 0.00 0.00 0.00 0.00 0.00 0.00 0.00 0.00 0.00
0.35 0.32 0.31 0.39 0.28 0.29 0.15 0.12 0.10 0.06 0.03 0.02 0.01 0.00 0.00 0.00 0.00 0.00 0.00 0.00 0.00 0.00 0.00 0.00 0.00 0.00 0.00 0.00 0.00 0.00 0.00 0.00 0.00 0.00 0.00 0.00 0.00 0.00 0.00 0.00 0.00 0.00 0.00
0.23 0.27 0.19 0.29 0.43 0.40 0.41 0.21 0.16 0.16 0.09 0.06 0.03 0.01 0.00 0.00 0.00 0.00 0.00 0.00 0.00 0.00 0.00 0.00 0.00 0.00 0.00 0.00 0.00 0.00 0.00 0.00 0.00 0.00 0.00 0.00 0.00 0.00 0.00 0.00 0.00 0.00 0.00
0.33 0.29 0.24 0.32 0.42 0.52 0.63 0.50 0.33 0.18 0.21 0.15 0.08 0.06 0.02 0.00 0.00 0.00 0.00 0.00 0.00 0.00 0.00 0.00 0.00 0.00 0.00 0.00 0.00 0.00 0.00 0.00 0.00 0.00 0.00 0.00 0.00 0.00 0.00 0.00 0.00 0.00 0.00
0.23 0.29 0.39 0.39 0.42 0.48 0.49 0.64 0.52 0.50 0.27 0.29 0.18 0.14 0.07 0.02 0.01 0.00 0.00 0.00 0.00 0.00 0.00 0.00 0.00 0.00 0.00 0.00 0.00 0.00 0.00 0.01 0.01 0.00 0.00 0.00 nan nan nan 0.04 0.03 0.00 0.01
0.27 0.29 0.30 0.30 0.34 0.55 0.65 0.66 0.83 0.63 0.72 0.37 0.40 0.27 0.17 0.10 0.03 0.01 0.01 0.00 0.00 0.00 0.00 0.00 0.00 0.00 0.00 nan nan 0.00 0.04 0.04 0.04 0.03 0.01 0.00 0.00 0.00 nan nan nan nan 0.04
0.39 0.35 0.42 0.46 0.49 0.57 0.73 0.74 0.82 0.89 0.76 0.93 0.51 0.51 0.34 0.25 0.18 0.03 0.03 0.01 0.01 0.01 0.01 0.00 0.00 0.00 0.00 nan nan nan 0.04 0.07 0.03 0.02 0.02 0.01 0.00 nan 0.00 nan nan nan nan
0.55 0.47 0.41 0.39 0.44 0.48 0.45 0.55 0.60 0.79 0.86 0.89 0.92 0.69 0.70 0.44 0.30 0.24 0.08 0.04 0.02 0.02 0.02 0.01 0.00 0.00 0.00 nan nan nan 0.02 0.05 0.01 0.01 0.00 0.00 0.00 0.00 0.01 0.00 0.00 0.00 0.00
0.64 0.79 0.83 0.72 0.51 0.59 0.52 0.52 0.50 0.56 0.61 0.72 0.92 1.00 0.97 0.99 0.64 0.58 0.50 0.14 0.11 0.03 0.01 0.01 0.01 0.01 0.00 nan nan 0.00 0.01 0.03 0.00 0.00 0.00 0.01 0.00 nan nan 0.01 0.03 0.02 0.00
0.69 0.61 0.54 0.70 0.38 0.46 0.52 0.54 0.53 0.48 0.53 0.68 0.90 1.01 1.14 1.32 1.40 0.89 0.90 0.60 0.23 0.18 0.05 0.02 0.00 nan 0.00 nan nan nan 0.05 0.19 0.06 0.01 0.00 nan 0.01 nan nan 0.02 0.08 0.13 0.03
0.43 0.45 0.39 0.53 0.68 0.55 0.56 0.56 0.58 0.66 0.77 0.74 0.74 0.75 0.84 1.08 1.47 1.67 1.13 1.38 0.85 0.27 0.28 0.14 0.07 0.02 0.00 0.01 nan nan 0.02 0.08 0.06 0.06 0.04 0.01 nan nan nan nan 0.01 0.02 0.00
0.14 0.12 0.20 0.24 0.26 0.24 0.32 0.42 0.37 0.59 0.57 0.69 0.72 0.73 0.82 0.86 0.87 1.28 1.57 1.30 1.68 1.45 0.85 0.74 0.44 0.25 0.03 nan nan nan nan nan 0.10 0.06 0.01 0.01 nan nan nan nan nan nan nan
0.08 0.09 0.18 0.18 0.11 0.14 0.23 0.20 0.34 0.37 0.38 0.36 0.55 0.71 0.77 0.77 0.85 0.89 1.11 1.43 1.46 1.75 1.79 1.57 1.45 1.12 0.27 0.08 nan nan nan nan 0.03 0.04 0.03 nan nan nan nan nan nan nan 0.04
0.01 0.01 0.03 0.06 0.08 0.08 0.10 0.17 0.23 0.24 0.29 0.35 0.41 0.49 0.62 0.71 0.73 0.77 0.84 0.95 1.12 1.48 1.70 1.57 1.68 1.53 1.18 0.43 0.11 0.09 0.13 nan 0.05 nan 0.06 nan 0.04 nan nan 0.00 0.00 0.00 0.00
0.00 0.00 0.01 0.01 0.03 0.03 0.06 0.08 0.08 0.10 0.24 0.34 0.42 0.49 0.52 0.73 0.74 0.78 1.52 1.46 1.27 1.96 2.23 2.08 1.84 1.90 1.79 1.55 0.63 0.49 0.32 0.22 0.22 nan 0.12 0.05 0.08 0.07 0.05 0.05 0.00 0.00 0.02
0.01 0.01 0.01 0.01 0.02 0.06 0.10 0.11 0.12 0.19 0.29 0.32 0.48 0.56 0.56 0.64 0.62 0.63 0.63 nan nan nan nan nan 1.70 1.64 nan nan nan nan nan nan nan 0.43 0.21 0.17 0.09 0.12 0.11 0.10 0.11 0.12 0.14
SL_Ratio
nan nan nan nan nan nan nan nan nan nan nan nan nan nan nan nan nan nan nan nan nan nan nan nan nan nan nan nan nan nan nan nan nan nan nan nan nan nan nan nan nan nan nan
nan nan nan nan nan nan nan nan nan nan nan nan nan nan nan nan nan nan nan nan nan nan nan nan nan nan nan nan nan nan nan nan nan nan nan nan nan nan nan nan nan nan nan
nan nan nan nan nan nan nan nan nan nan nan nan nan nan nan nan nan nan nan nan nan nan nan nan nan nan nan nan nan nan nan nan nan nan nan nan nan nan nan nan nan nan nan
nan nan nan nan nan nan nan nan nan nan nan nan nan nan nan nan nan nan nan nan nan nan nan nan nan nan nan nan nan nan nan nan nan nan nan nan nan nan nan nan nan nan nan
nan nan nan nan nan nan nan nan nan nan nan nan nan nan nan nan nan nan nan nan nan nan nan nan nan nan nan nan nan nan nan nan nan nan nan nan nan nan nan nan nan nan nan
6.4 6.0 nan nan nan nan nan nan nan nan nan nan nan nan nan nan nan nan nan nan nan nan nan nan nan nan nan nan nan nan nan nan nan nan nan nan 7.5 nan 10.0 10.0 nan nan nan
6.4 6.6 7.1 6.3 nan nan nan nan nan nan nan nan nan nan nan nan nan nan nan nan nan nan nan nan nan nan nan nan nan nan nan nan nan nan nan nan nan nan nan 5.0 nan nan nan
7.0 7.0 6.8 6.9 6.5 nan nan nan nan nan nan nan nan nan nan nan nan nan nan nan nan nan nan nan nan nan nan nan nan nan nan nan nan nan nan nan nan nan nan nan 7.0 10.0 nan
7.8 7.7 7.1 7.0 7.0 7.0 6.7 5.0 nan nan nan nan nan nan nan nan nan nan nan nan nan nan nan nan nan nan nan nan nan nan nan nan nan nan nan nan nan nan nan nan nan nan 7.8
8.9 8.7 8.5 8.1 7.7 7.3 7.3 6.7 6.0 4.3 nan nan nan nan nan nan nan nan nan nan nan nan nan nan nan nan nan nan nan nan nan nan nan nan nan nan nan nan nan nan nan nan 7.5
9.4 9.1 8.7 8.4 8.2 8.1 8.2 8.1 7.4 6.1 3.8 nan nan nan nan nan nan nan nan nan nan nan nan nan nan nan nan nan nan nan nan nan nan nan nan nan nan nan nan nan nan 5.0 nan
9.4 9.2 8.7 8.5 8.3 8.3 8.0 8.5 8.2 8.1 7.0 5.5 5.4 6.3 nan nan nan nan nan nan nan nan nan nan nan nan nan nan nan nan nan nan nan nan nan nan nan nan nan 5.0 5.0 7.5 5.0
9.8 9.5 9.0 8.9 8.6 8.4 8.3 8.2 8.1 8.2 7.5 7.4 6.3 6.1 6.3 nan nan nan nan nan nan nan nan nan nan nan nan nan nan nan nan nan nan nan nan nan 5.0 nan nan nan 5.0 5.0 nan
10.5 10.2 9.9 9.4 8.8 8.4 8.1 8.5 8.0 7.8 7.5 7.2 6.9 6.5 5.1 5.7 7.0 nan nan nan nan nan nan nan nan nan nan nan nan nan nan nan nan nan nan nan nan nan 5.0 10.0 10.0 5.0 7.5
11.4 11.0 10.6 10.2 9.4 9.1 8.6 7.6 8.1 7.5 7.7 7.5 7.1 6.6 5.5 5.3 6.1 9.0 5.0 5.0 nan nan nan nan nan nan 5.0 nan 5.0 7.5 7.9 8.1 7.8 8.0 8.0 6.7 nan nan nan 6.8 6.9 7.1 6.9
11.8 11.2 10.6 10.2 10.0 9.6 9.3 8.6 7.6 8.0 6.9 7.4 7.4 6.7 6.2 5.1 5.6 6.6 7.5 7.5 9.2 8.8 7.5 5.0 5.0 5.0 nan nan nan 7.5 7.3 7.5 7.8 8.0 6.9 7.1 6.7 6.7 nan nan nan nan 6.7
11.7 11.7 11.3 10.9 10.4 10.1 9.5 9.4 8.9 7.8 7.9 7.2 6.8 7.1 6.8 6.4 5.2 6.4 6.7 7.8 8.6 8.8 8.2 7.5 7.5 10.0 5.0 nan nan nan 7.3 7.5 7.5 7.5 7.5 6.8 nan nan nan nan nan nan nan
10.8 10.5 10.5 10.4 10.1 9.8 9.8 9.2 8.8 8.7 8.4 8.1 7.2 6.5 6.8 6.7 6.0 5.4 6.4 6.8 7.9 8.2 8.4 7.6 7.5 7.5 8.3 nan nan nan 7.1 7.7 7.9 7.5 10.0 5.0 nan nan 6.3 7.0 6.7 5.0 nan
10.5 10.4 9.8 9.8 9.6 10.0 9.7 9.7 9.6 9.3 9.2 8.9 8.1 7.4 6.6 6.7 6.6 5.8 5.1 6.3 7.8 8.4 8.6 8.6 7.9 7.7 7.5 nan nan 8.3 7.4 7.8 7.5 nan 8.3 7.5 7.9 nan nan 6.9 7.2 7.2 6.3
10.1 10.5 9.9 9.3 8.9 9.3 9.3 9.8 10.2 10.3 10.2 9.4 8.6 8.0 7.5 6.9 6.7 6.1 5.8 5.3 6.6 7.0 7.4 7.7 7.1 nan 10.0 nan nan nan 7.6 8.1 7.9 7.5 7.5 nan 6.5 nan nan 6.3 7.4 7.8 7.6
11.0 10.1 9.9 10.6 9.8 9.2 9.3 10.0 10.0 10.4 9.6 9.1 8.4 8.2 7.9 7.9 7.2 6.4 5.9 4.8 5.0 6.1 5.4 5.9 5.6 6.2 6.7 5.8 nan nan 7.6 8.1 8.3 8.2 7.7 7.0 nan nan nan nan 6.5 6.9 nan
12.0 11.6 11.7 11.2 10.6 10.4 10.0 10.7 11.1 10.1 9.7 9.0 8.7 8.5 8.1 8.1 7.8 7.4 6.3 6.0 4.9 4.4 4.2 4.9 4.8 4.8 5.3 nan nan nan nan nan 7.5 7.8 7.3 7.8 nan nan nan nan nan nan nan
12.5 12.0 12.3 12.1 11.2 11.2 11.0 12.2 11.1 10.6 10.3 9.8 9.1 8.6 8.1 8.1 8.3 8.5 7.7 6.9 6.1 5.8 5.5 4.7 4.1 3.9 4.7 4.9 nan nan nan nan 7.1 7.3 7.4 nan nan nan nan nan nan nan 3.4
12.9 12.5 12.5 12.8 12.7 11.8 11.0 11.0 10.8 10.8 10.6 9.5 8.9 8.4 8.2 8.1 7.9 7.5 7.3 7.3 7.0 7.0 6.5 6.4 6.0 4.7 3.7 3.5 4.6 6.7 7.8 nan 7.7 nan 7.7 nan 6.8 nan nan nan nan nan 6.3
11.7 10.0 11.5 11.9 13.1 11.8 11.2 10.3 9.3 9.2 8.2 7.8 7.4 7.4 7.5 7.8 7.8 7.3 8.1 8.0 7.3 7.5 8.0 7.5 7.4 7.0 6.5 4.8 5.1 6.7 7.9 7.8 7.8 nan 7.8 4.5 3.4 3.6 3.4 3.3 5.0 5.0 3.5
10.8 9.7 8.6 9.6 7.1 6.9 6.9 5.8 5.5 5.7 6.0 6.6 6.8 7.0 7.5 7.3 7.9 8.2 7.2 nan nan nan nan nan 6.8 6.9 nan nan nan nan nan nan nan 7.6 5.4 4.1 3.6 3.6 3.2 3.7 3.8 3.6 3.2